Temp
14 13 13 13 13 13 13 13 14 14 14 14 14 14 14 14 14 15 17 18 19 19 19 20 20 21 22 23 24 25 24 24 24 25 25 24 24 24 23 23 23 23 23 23 22 22 21 21 20 20 20 20 20 20 20 19 19 19 19 18 18 18 18 19 19 19 19 19 19 19 20 20 20 20 20 20 20 20 20 20 20 20 20 19 19 19
13 13 12 12 12 13 13 14 14 14 14 14 14 14 14 14 14 15 16 17 18 18 18 19 19 19 20 22 24 25 24 23 24 24 24 24 24 24 24 25 24 23 23 23 22 21 21 21 20 20 20 20 20 20 19 19 19 19 19 18 18 18 18 18 19 19 19 19 20 20 20 20 20 20 20 20 20 20 20 20 20 20 20 19 20 19
13 12 12 12 13 13 14 14 13 13 14 14 14 13 13 14 14 15 16 17 17 17 18 19 18 18 20 21 22 23 23 23 24 24 24 24 24 24 25 25 25 24 24 23 22 21 20 20 20 20 20 20 20 20 19 19 19 19 19 18 18 18 18 18 19 19 19 20 20 20 20 20 20 20 20 20 20 20 20 20 20 20 20 20 19 19
12 12 13 13 13 13 13 13 13 13 13 13 13 13 13 14 14 14 16 17 17 17 18 18 18 17 19 20 21 22 23 23 24 23 23 24 24 24 25 25 25 25 24 23 22 21 19 19 19 19 19 20 20 19 19 19 19 19 19 19 18 18 18 18 18 19 20 20 20 20 20 20 20 20 20 20 20 20 20 20 20 19 19 19 19 19
12 13 13 13 13 13 13 13 13 13 13 13 13 13 13 13 14 14 15 16 17 17 17 17 17 18 19 20 21 22 22 22 23 23 22 22 23 24 24 24 24 24 24 23 22 22 20 19 19 19 19 19 19 19 19 19 19 19 19 19 18 18 18 18 18 19 19 19 19 19 19 19 19 19 19 19 19 19 19 19 19 19 19 19 19 19
12 13 13 13 13 13 13 13 13 13 13 13 13 13 13 14 14 14 15 15 15 16 17 18 17 17 19 20 21 22 22 22 22 23 23 22 22 23 23 23 24 24 24 24 23 22 20 19 19 19 19 19 19 20 20 20 19 19 19 19 18 18 18 18 18 18 18 19 19 18 18 18 18 17 18 18 18 18 19 19 19 20 19 19 19 19
12 13 13 13 13 13 13 13 13 13 12 12 13 14 14 14 14 14 14 14 14 15 17 18 16 16 18 19 20 21 22 22 22 23 23 23 22 22 22 23 24 24 24 24 24 22 21 20 19 19 19 19 19 20 20 20 19 19 19 19 19 18 18 18 18 18 18 19 19 19 19 18 18 17 17 18 19 19 20 20 20 19 19 19 19 19
12 12 13 13 13 13 12 12 13 13 12 12 14 15 14 14 14 14 14 14 14 15 16 16 17 16 16 18 19 19 20 21 22 22 23 23 22 22 22 22 23 24 24 24 24 22 21 20 19 19 19 20 20 20 20 20 20 19 19 19 19 19 18 18 18 18 18 19 19 19 19 19 18 18 18 18 19 19 20 20 19 19 19 19 19 19
13 13 13 13 13 12 12 13 13 14 13 13 15 15 14 14 14 14 14 13 14 14 14 15 16 15 15 18 19 19 20 20 21 22 23 23 23 22 22 22 22 23 23 23 23 22 21 20 19 19 19 20 20 20 20 20 20 19 19 19 19 19 19 18 18 18 18 19 19 19 19 18 18 18 19 19 19 19 19 19 19 19 19 19 19 19
13 13 14 13 13 12 13 13 14 14 13 14 14 14 14 14 14 14 14 14 14 13 13 14 16 15 15 18 19 19 20 20 21 22 23 24 24 23 22 22 22 22 22 22 22 22 21 20 20 20 20 20 20 20 20 20 20 19 19 19 19 19 19 18 18 18 18 19 19 19 19 18 18 18 18 18 19 19 19 19 19 19 19 18 18 18
13 13 13 13 13 13 13 14 14 14 14 14 14 14 14 14 14 14 14 14 13 12 13 14 15 15 15 17 19 19 20 21 21 22 22 23 24 24 23 22 22 21 21 22 22 22 21 20 20 20 20 20 20 20 20 20 19 19 19 19 19 19 19 19 18 18 18 19 19 19 19 19 18 18 18 18 18 18 18 18 18 18 18 18 18 18
12 12 12 13 14 14 14 13 13 14 14 13 13 13 13 13 13 13 13 14 12 11 14 15 15 15 14 16 18 19 20 21 21 22 22 23 24 24 23 22 21 21 21 21 22 22 21 21 20 20 20 20 19 19 19 19 19 19 19 19 19 19 19 19 18 18 18 18 18 19 19 18 18 18 18 18 17 18 18 18 18 18 18 18 18 17
11 11 12 13 14 14 13 12 12 13 13 13 13 12 11 11 12 12 12 12 11 12 14 15 15 15 15 16 18 19 20 20 20 21 22 22 23 24 24 23 21 20 21 21 21 22 21 21 20 20 19 19 19 19 19 19 19 19 19 19 19 19 19 18 18 18 18 18 18 18 18 18 18 18 18 18 18 18 18 18 18 18 18 17 17 17
10 11 11 12 13 13 13 12 11 12 12 12 12 12 11 11 10 10 12 12 12 13 15 16 16 15 16 17 19 19 20 21 21 21 21 21 22 22 23 23 21 20 21 21 21 21 21 21 21 20 19 20 19 19 19 19 19 19 19 19 19 18 18 18 18 18 18 18 18 18 18 18 18 18 18 18 18 18 18 19 18 18 18 18 17 17
9 10 11 11 12 13 13 13 12 13 12 12 13 13 12 12 11 11 12 12 13 14 15 15 15 15 17 18 19 20 21 21 21 21 21 21 22 21 22 22 21 20 20 21 21 21 21 21 21 20 20 20 20 19 19 19 19 19 19 19 18 18 18 18 18 18 17 17 18 18 18 18 18 18 18 18 18 18 19 19 19 18 18 18 18 17
8 9 11 12 12 12 12 13 13 13 12 12 13 13 12 13 13 13 13 13 14 14 14 15 15 16 18 19 19 19 20 21 21 21 21 21 22 22 21 22 22 20 20 21 21 21 21 21 20 20 20 20 20 20 19 19 19 19 19 19 18 18 18 18 18 18 17 17 17 17 17 17 18 18 18 18 18 18 19 19 19 18 18 18 18 17
9 9 11 12 12 12 12 13 14 13 12 12 12 12 13 14 14 13 13 14 14 13 14 15 16 17 18 18 20 20 19 20 20 20 21 21 22 22 21 22 21 21 20 20 21 21 21 21 20 20 20 20 20 20 19 19 19 19 19 19 18 18 18 18 18 18 17 17 17 17 17 17 17 18 17 18 18 18 18 19 19 18 18 18 17 17
9 10 11 12 12 12 12 13 13 13 14 12 12 13 14 14 14 13 13 13 13 12 14 16 16 17 17 18 20 21 20 21 21 21 22 22 22 22 21 22 21 21 21 20 21 21 21 21 21 20 21 20 20 20 20 19 19 19 19 19 18 18 18 18 18 18 17 17 17 17 17 17 17 17 17 18 18 18 18 18 18 18 18 18 17 17
9 9 11 11 11 11 12 12 12 13 14 13 13 14 14 13 12 13 13 13 13 13 14 16 16 16 17 17 19 21 20 21 22 22 22 22 22 22 22 22 22 21 21 20 21 21 21 21 21 20 21 21 21 20 20 19 19 19 19 19 18 18 18 18 18 18 17 17 17 17 17 17 17 17 17 17 18 18 18 18 17 18 18 18 17 17
10 9 10 11 10 10 11 12 11 12 13 13 14 14 13 13 12 12 12 13 14 13 13 15 16 16 18 19 20 21 21 22 22 22 22 22 22 22 22 22 22 21 21 20 20 21 21 21 21 21 21 21 21 20 20 19 19 19 19 18 18 18 18 18 18 18 17 17 17 16 16 16 17 17 17 17 18 17 18 18 18 17 17 17 17 17
10 9 10 11 11 10 11 12 12 12 12 12 12 12 12 13 12 11 12 13 14 14 14 14 15 17 19 20 20 21 22 23 22 22 23 22 22 22 21 22 22 21 21 20 20 21 21 21 21 21 21 21 21 20 20 19 19 19 18 18 18 18 18 18 18 18 17 17 17 16 16 16 16 16 17 17 17 17 17 17 17 17 17 17 17 17
10 9 9 10 10 10 11 12 12 13 13 12 12 13 13 13 12 12 12 13 14 14 15 15 14 17 20 19 20 21 21 21 22 21 22 22 22 21 21 21 21 21 21 21 20 21 21 21 21 21 21 21 20 20 19 19 19 18 18 18 18 18 18 18 18 17 17 17 17 16 16 16 16 16 16 17 17 17 17 17 17 17 17 17 17 17
10 9 8 9 9 10 11 12 13 13 12 12 12 13 13 13 13 12 11 13 14 14 15 15 14 17 19 18 19 20 19 20 20 20 21 21 21 20 19 19 20 21 21 21 21 21 21 21 21 20 20 20 20 19 19 19 19 18 18 18 18 18 18 18 18 17 17 17 17 17 16 16 16 16 16 16 16 16 17 17 17 17 17 17 17 16
9 8 8 9 10 11 11 11 12 12 12 12 12 12 13 13 13 13 12 13 14 14 15 14 14 17 19 18 18 18 18 19 19 20 21 21 20 19 19 18 19 20 21 21 21 21 21 21 21 20 20 19 19 19 19 19 19 18 18 18 18 18 18 18 18 17 17 17 17 17 16 16 16 16 16 16 16 16 16 17 17 17 17 17 16 16
9 8 8 8 9 10 11 11 11 11 11 11 12 13 12 12 13 12 13 13 13 14 15 14 15 17 18 17 17 18 19 19 19 19 19 19 19 19 19 18 18 19 20 21 21 21 21 21 20 20 20 19 19 19 19 19 19 18 18 18 18 18 18 18 18 17 17 17 17 17 16 16 16 16 16 16 16 16 16 17 17 16 16 16 16 16
9 8 8 8 9 10 11 11 10 11 11 11 13 14 13 12 11 12 12 13 13 14 14 15 15 16 17 18 18 18 18 18 18 19 18 18 18 18 18 18 17 18 19 20 21 21 21 20 20 20 20 19 19 19 19 18 18 18 18 18 18 18 18 18 18 17 17 17 17 17 16 16 16 16 16 16 16 16 16 16 16 16 16 16 16 16
8 8 8 9 10 10 11 11 11 11 12 12 13 14 14 13 11 12 13 13 14 15 14 15 15 16 17 18 18 18 18 18 18 18 18 18 18 18 18 18 17 17 18 19 20 20 20 20 20 20 20 19 19 19 19 18 18 18 18 18 18 18 18 18 18 17 17 17 17 17 16 16 16 16 16 16 16 16 16 16 16 16 16 16 16 16
9 9 9 9 9 10 10 11 11 10 11 12 13 13 14 13 12 12 13 14 15 15 14 15 16 16 17 17 17 17 18 18 18 18 18 18 18 17 17 17 17 16 17 18 19 20 20 20 20 20 20 19 19 19 19 18 18 18 18 18 18 18 18 18 17 17 17 17 17 17 16 16 16 16 16 16 16 16 16 16 16 16 16 16 16 16
10 10 10 9 9 10 10 10 11 10 10 11 12 13 13 13 12 13 14 15 16 15 15 16 16 16 17 17 17 18 18 18 18 18 18 18 18 17 18 18 18 17 17 18 19 20 20 20 20 20 19 19 18 18 18 18 18 18 18 18 17 17 18 18 17 17 17 17 17 17 16 16 16 16 16 16 16 16 15 15 15 15 15 16 16 16
11 10 10 9 10 11 11 11 10 10 10 11 12 12 13 13 13 14 15 15 15 16 17 17 17 16 16 17 18 18 17 17 17 17 17 17 18 18 19 19 18 17 17 18 19 20 20 20 20 19 19 19 18 18 18 18 18 18 18 18 17 17 18 18 17 17 17 17 17 17 16 16 16 16 16 16 16 15 15 15 15 15 15 16 16 16
11 11 11 10 10 11 11 11 11 10 10 11 12 12 13 13 14 14 14 15 15 16 17 17 16 16 17 17 17 16 16 16 16 17 17 18 18 19 20 20 19 18 17 18 19 19 20 20 20 19 19 19 18 18 18 18 18 18 18 18 17 17 18 17 17 17 17 17 17 17 16 16 16 16 16 15 15 15 15 15 15 15 15 16 16 16
11 11 11 10 10 11 12 11 11 11 11 11 12 13 12 13 14 14 14 15 16 17 17 17 16 17 18 17 15 14 15 15 16 17 18 19 19 19 20 20 19 19 18 18 18 19 19 19 19 19 19 18 18 18 18 18 18 18 18 18 17 17 17 17 17 17 17 17 17 17 16 16 16 16 16 15 15 15 15 15 15 14 15 15 15 15
10 10 11 11 11 12 12 11 11 11 12 12 13 12 11 12 13 14 15 15 16 16 17 17 17 17 16 14 14 14 15 14 15 16 17 18 19 19 19 19 19 19 19 18 19 19 19 19 19 19 19 18 18 18 18 18 18 18 18 18 17 17 17 17 17 17 17 17 17 17 16 16 16 16 16 15 15 15 15 15 14 14 14 15 15 14
11 10 10 11 11 12 12 11 11 11 12 13 13 11 10 11 12 13 14 14 14 14 16 16 16 15 14 14 14 14 14 14 14 15 15 16 17 19 19 19 19 20 19 19 19 20 19 19 19 18 18 18 18 18 18 18 18 18 18 18 17 17 17 17 17 17 17 17 17 17 16 16 16 16 16 15 15 15 15 14 14 14 14 14 14 14
11 10 10 11 11 12 12 12 12 12 13 12 12 11 11 11 11 12 12 13 12 13 14 14 14 13 13 13 13 13 13 14 13 14 15 17 17 18 19 18 19 19 19 19 19 19 19 19 19 18 17 18 18 18 18 18 18 18 18 18 17 17 17 17 17 17 17 17 17 17 16 16 16 16 15 15 15 15 14 14 14 14 14 14 14 14
11 11 11 11 12 12 12 12 12 13 12 12 11 11 12 11 11 12 13 13 13 13 13 13 13 13 13 13 13 13 13 13 13 14 17 19 18 18 18 18 17 18 19 19 19 19 19 18 18 17 17 17 18 18 18 18 18 18 18 17 17 17 17 17 17 17 17 17 17 17 16 16 16 16 15 15 15 14 14 14 14 14 14 14 13 13
11 11 12 12 13 12 12 12 12 12 12 12 12 12 12 11 11 12 12 14 14 13 12 12 12 12 13 13 14 13 13 13 15 19 21 20 17 17 17 16 16 17 17 18 18 17 17 17 17 17 17 17 17 18 17 17 18 18 17 17 17 17 17 17 17 17 17 17 17 16 16 16 16 15 15 15 14 14 14 14 14 14 14 13 12 12
10 11 12 13 13 12 12 13 13 13 13 13 13 12 12 12 11 11 12 13 14 13 12 12 11 12 13 13 13 13 13 14 19 23 22 18 16 16 16 16 16 16 17 17 17 16 16 17 17 17 18 17 17 17 18 17 18 17 17 17 17 17 17 17 17 17 17 17 17 16 16 16 16 16 15 15 14 14 14 14 14 14 14 13 12 12
11 11 12 12 12 13 13 13 13 13 14 13 13 13 13 12 11 11 12 14 14 13 13 12 11 12 12 13 13 13 13 15 20 23 20 16 14 14 15 16 16 16 16 16 17 17 16 16 17 17 17 17 16 17 18 18 18 17 17 17 17 17 17 17 17 17 17 17 17 16 16 16 16 16 15 15 14 14 14 14 14 13 13 13 13 12
12 12 12 13 13 12 12 12 13 14 14 13 13 13 13 12 11 12 13 14 13 12 13 13 12 12 12 12 13 12 13 15 17 18 16 14 14 14 14 15 15 15 15 15 16 17 17 16 16 16 16 16 16 17 18 18 18 17 17 17 17 17 17 17 17 17 17 16 16 16 16 16 16 15 15 15 14 14 15 14 13 13 13 12 12 12
12 12 12 12 12 12 12 12 13 13 13 13 13 13 13 12 12 13 14 14 13 12 13 13 12 12 12 12 12 12 13 13 14 14 14 13 14 15 15 14 13 14 14 14 15 17 17 17 17 16 16 16 16 17 18 18 17 17 17 17 17 17 17 17 17 17 17 17 16 16 16 16 16 16 15 15 15 15 15 14 13 13 13 12 12 12
11 11 12 12 12 12 11 11 12 13 13 12 13 13 13 12 13 13 13 13 12 13 13 13 13 13 13 13 13 12 12 13 12 13 13 13 14 15 15 14 13 13 14 15 16 17 16 16 16 16 16 17 16 17 17 17 17 16 16 16 17 17 17 17 17 17 17 16 16 16 16 16 16 16 15 15 15 14 14 13 13 13 12 12 12 12
11 11 12 12 11 11 11 11 12 13 12 12 12 12 12 12 12 13 13 12 12 13 13 12 12 12 12 13 13 12 12 12 12 13 13 13 14 16 15 14 13 13 13 14 16 16 16 16 15 16 17 17 17 17 17 17 16 16 16 16 17 17 17 17 17 16 16 16 16 16 15 15 15 15 15 15 15 14 13 13 12 12 12 12 11 11
11 11 11 11 11 11 12 12 12 12 12 12 12 11 12 12 12 12 12 12 12 13 12 12 12 12 12 13 12 12 12 12 12 13 13 13 14 15 15 14 13 13 13 13 14 15 16 15 15 16 17 17 17 17 17 17 16 16 16 16 17 17 17 16 16 16 16 16 15 15 15 15 15 14 14 15 14 13 13 12 12 12 12 12 11 10
12 11 11 11 11 11 12 12 12 12 12 12 12 12 12 12 12 12 12 12 12 12 12 12 12 12 12 12 12 12 12 12 12 12 12 12 13 13 13 13 13 13 13 13 13 14 15 15 15 15 16 16 17 17 17 17 16 16 16 16 16 17 16 16 16 16 16 15 15 15 15 14 14 14 14 14 14 13 13 12 12 11 11 11 11 11
12 12 11 11 11 12 12 12 12 12 12 12 12 12 12 12 12 12 12 12 12 12 12 12 12 12 12 12 12 12 12 12 12 12 12 12 12 12 13 13 13 12 12 13 13 13 14 15 15 15 15 15 16 17 17 17 17 16 16 16 16 16 16 16 16 16 15 15 15 15 15 14 14 14 14 14 14 13 13 12 11 11 11 11 11 10
12 11 11 11 11 11 12 13 12 12 12 12 12 12 12 12 12 12 12 12 12 12 12 12 12 12 12 12 11 12 12 12 12 12 12 12 12 13 13 13 13 13 12 12 13 13 14 14 14 14 14 14 15 16 16 16 16 16 16 16 16 16 16 16 15 15 15 15 15 14 14 14 14 14 14 13 13 12 12 12 11 11 11 10 10 10
11 11 10 10 10 11 12 13 12 12 13 13 12 12 12 11 12 12 12 12 12 12 12 12 12 12 12 12 11 11 12 12 12 12 13 12 12 13 12 12 12 12 12 12 12 13 14 14 13 13 13 14 14 15 15 15 16 16 16 16 16 16 16 15 15 15 15 14 14 14 14 13 13 13 13 12 12 11 11 11 11 11 11 11 11 11
10 10 9 9 9 11 12 12 12 12 13 13 13 12 12 11 11 12 12 12 12 12 11 12 12 12 12 12 12 11 12 12 12 12 13 13 12 12 12 12 12 11 11 11 12 13 13 13 13 13 13 14 14 15 15 15 15 16 16 16 16 15 15 15 14 14 14 14 14 13 13 13 13 13 12 12 12 12 12 12 11 11 11 11 12 13
9 9 8 8 9 11 11 11 11 11 11 12 12 12 12 12 11 11 12 12 12 12 11 12 13 13 12 12 12 11 12 12 12 12 13 12 12 12 12 12 11 11 11 11 12 12 12 13 13 13 13 14 14 15 15 15 15 15 15 15 15 15 15 14 14 14 14 13 13 13 13 12 12 12 12 12 11 11 11 11 11 11 11 11 12 13
9 8 8 8 9 10 10 10 10 10 11 11 12 12 12 11 11 11 12 12 12 12 11 11 12 12 12 12 12 11 11 12 12 12 12 12 12 11 11 11 11 11 11 11 11 11 11 12 12 12 12 13 14 14 15 15 15 15 15 15 15 15 15 14 14 13 13 13 13 13 12 12 12 12 12 11 11 11 10 10 10 11 11 12 12 12
Height
776 779 780 779 780 781 781 779 779 780 780 779 780 782 783 783 780 774 767 759 757 761 757 751 747 745 744 740 734 732 732 733 733 733 735 736 739 740 740 740 741 742 740 737 741 745 749 753 756 759 762 765 767 768 771 775 778 780 782 783 785 786 789 790 791 793 794 795 797 798 799 801 804 808 810 813 815 817 819 821 823 824 826 827 828 830
777 781 780 781 783 781 779 779 779 780 778 778 780 781 781 782 780 774 769 763 759 764 760 751 751 750 746 742 735 732 733 733 731 732 733 733 735 736 736 736 736 736 734 735 740 743 747 751 754 757 759 762 763 764 767 771 775 778 780 781 782 784 786 787 789 790 792 793 794 795 796 799 802 806 808 811 813 815 817 819 821 823 824 825 827 828
780 780 778 780 780 777 777 777 779 781 779 780 781 782 783 781 777 773 769 763 761 765 762 754 753 752 746 741 736 733 731 729 726 727 728 729 732 733 733 732 731 731 731 734 739 742 745 748 751 755 757 758 759 761 766 770 775 777 777 778 780 782 783 784 786 788 790 792 794 795 796 799 802 804 807 809 812 814 816 818 820 821 823 824 826 827
782 777 776 777 777 776 778 777 780 781 780 781 781 783 784 780 780 777 771 766 763 763 761 757 756 752 747 743 737 733 729 725 724 725 725 725 727 727 727 727 728 729 730 733 736 739 743 746 749 752 754 756 758 761 764 768 771 772 773 775 778 780 781 782 784 786 789 792 794 796 797 799 801 803 806 809 811 812 814 816 818 819 821 823 825 826
779 775 773 774 775 776 777 778 780 781 781 780 779 781 782 780 780 778 774 770 765 761 758 759 760 750 743 744 738 731 729 726 723 724 725 725 724 723 723 723 725 725 726 730 733 735 740 743 745 747 749 752 755 757 759 762 765 767 770 773 775 778 780 781 782 785 788 791 793 794 796 798 800 802 804 806 808 810 812 814 816 818 820 822 823 825
775 773 772 772 773 775 777 777 778 779 780 780 777 775 775 776 776 775 775 774 774 771 757 758 767 755 740 742 738 730 729 728 725 724 725 724 724 724 724 723 723 722 721 722 725 729 734 737 740 742 746 750 752 752 753 757 761 765 768 771 774 776 778 779 781 783 786 788 790 791 792 793 795 798 799 801 804 807 810 812 814 817 818 820 822 823
773 770 770 771 772 774 776 776 775 775 780 782 774 768 770 774 776 775 775 777 780 775 758 756 768 762 749 743 737 733 731 728 725 724 723 723 724 725 725 723 722 721 719 718 720 724 729 733 737 740 742 745 746 746 748 754 759 763 766 769 771 774 775 777 779 781 783 785 786 787 788 789 791 794 796 799 802 805 808 811 813 815 817 819 820 821
771 772 772 771 771 773 774 775 773 772 779 779 768 765 769 771 774 774 775 778 776 770 762 759 764 768 763 748 737 737 736 731 727 723 720 719 721 722 721 720 719 718 717 716 718 722 726 730 734 736 737 738 738 740 746 751 755 759 763 766 769 771 773 775 777 779 781 782 783 784 786 788 790 792 795 798 801 804 807 809 812 814 816 817 819 820
769 771 771 770 772 773 773 772 771 771 775 772 764 766 768 768 770 770 773 776 772 772 772 764 762 770 767 748 736 737 736 732 728 722 717 714 714 716 717 716 715 714 714 714 716 719 722 726 729 731 732 732 733 737 742 745 750 756 760 764 767 769 771 773 775 777 779 780 781 782 784 787 789 792 795 797 800 803 805 808 810 812 814 816 817 819
768 767 767 768 770 771 771 769 768 769 770 767 766 768 767 767 768 767 772 773 772 778 777 764 761 769 764 746 738 738 735 730 725 719 714 709 707 710 712 713 713 714 715 715 715 717 718 720 722 725 728 730 732 736 740 743 749 754 758 761 764 765 768 770 773 775 777 779 779 781 782 785 788 791 793 796 799 801 804 806 808 810 812 814 815 817
767 765 766 766 766 766 767 767 766 766 766 766 768 767 767 768 767 767 769 768 775 782 773 760 758 765 764 748 737 734 727 721 720 717 712 707 704 706 709 712 713 713 714 714 715 716 717 718 720 722 725 728 732 736 740 744 748 751 754 757 760 762 765 767 769 772 774 776 777 779 781 783 785 788 791 794 796 799 801 803 806 808 810 812 814 815
768 768 766 762 761 761 764 766 765 763 763 767 770 770 772 771 767 771 770 770 783 783 765 754 754 762 764 749 735 729 720 715 717 715 711 708 705 703 706 709 711 711 712 712 714 715 716 719 721 724 725 728 733 736 739 741 744 747 750 753 757 759 761 763 766 769 771 773 775 776 779 781 783 786 788 791 794 796 798 801 804 806 808 810 812 814
769 766 763 759 756 757 762 766 766 764 764 768 770 773 781 781 779 781 777 775 782 773 755 750 754 757 754 740 731 726 717 714 715 713 710 708 706 703 703 706 708 709 709 710 711 712 714 716 719 721 723 726 730 733 735 737 740 743 745 749 752 754 757 761 763 766 768 770 772 774 777 780 782 784 786 789 792 794 796 799 801 804 806 808 810 812
772 764 761 761 757 753 757 763 766 766 765 769 770 773 781 786 790 791 779 774 775 764 751 749 753 754 744 730 724 720 714 710 709 708 708 706 705 703 702 703 706 706 706 706 707 709 710 712 714 716 718 721 724 727 729 733 736 738 741 744 748 751 755 759 761 764 766 767 770 773 775 778 780 782 784 787 789 792 795 797 799 801 803 805 807 809
783 773 761 760 757 752 751 752 756 759 762 767 765 768 773 773 779 782 773 769 769 760 751 750 754 752 737 723 715 710 707 705 704 703 703 703 701 700 700 701 703 704 704 703 703 704 706 707 710 711 713 716 719 722 725 728 732 735 736 739 742 746 750 754 758 761 763 765 769 771 774 776 778 780 783 785 788 790 793 795 797 799 801 803 805 808
789 779 760 755 754 752 751 747 748 755 762 762 758 764 770 763 763 767 764 760 759 757 752 749 748 737 723 715 709 707 705 702 703 702 701 702 699 698 698 698 700 701 702 701 700 701 702 703 705 706 709 712 714 718 721 724 727 730 732 734 737 741 746 750 754 757 760 764 767 769 771 774 777 779 781 783 786 788 791 793 795 797 799 801 804 806
783 774 758 754 753 750 751 747 746 752 756 757 760 763 760 754 756 763 763 756 757 763 755 742 739 730 722 716 705 705 708 702 702 702 701 700 696 696 696 694 696 698 698 699 698 698 698 699 702 703 705 708 711 714 717 719 721 723 725 729 733 739 744 748 751 754 758 762 764 767 769 772 774 776 778 781 784 786 790 792 793 796 798 800 803 805
774 769 756 754 752 747 748 748 746 746 747 752 758 754 748 751 756 760 763 759 759 765 752 737 737 732 728 723 706 701 707 702 698 698 697 696 694 695 694 691 692 694 694 695 695 695 695 695 697 699 701 704 706 710 713 714 716 718 722 725 730 735 738 741 746 750 755 759 762 765 766 769 771 774 776 779 782 785 788 790 792 794 796 798 801 803
772 771 758 754 756 751 748 751 750 746 744 747 748 743 746 755 759 759 762 761 759 761 750 737 735 731 726 721 708 702 703 699 695 694 693 693 691 692 692 689 689 690 691 692 691 692 693 692 693 694 696 699 702 705 709 712 716 719 721 724 727 731 734 739 743 748 752 756 759 761 763 766 769 772 775 777 780 783 785 787 789 791 794 796 799 801
770 773 763 755 758 756 750 750 753 749 746 746 746 747 748 751 757 760 760 756 752 755 751 741 735 728 718 710 702 698 697 694 693 692 691 690 689 689 689 688 687 688 688 688 688 688 689 689 689 690 692 694 697 700 704 709 714 716 719 721 725 730 735 739 741 744 748 752 756 759 762 765 767 770 772 775 778 780 782 785 787 789 791 794 796 799
768 775 769 757 756 756 751 748 749 748 747 749 752 754 751 748 755 763 759 750 746 748 749 744 739 724 706 699 697 693 690 688 688 688 687 687 686 686 686 685 685 685 684 684 684 684 684 685 685 686 688 690 694 699 702 706 710 713 717 719 723 728 732 735 738 740 744 749 753 757 759 762 765 768 770 773 775 778 780 783 784 787 789 791 794 796
768 774 772 764 760 757 750 744 744 744 745 748 748 747 747 748 753 763 763 750 741 741 739 739 739 721 700 696 695 692 691 689 687 688 687 685 685 684 683 682 680 680 680 680 679 679 679 680 681 682 684 688 693 697 700 703 706 710 713 716 719 724 728 731 734 738 741 746 751 754 757 760 763 766 768 771 773 776 778 780 782 784 787 789 792 794
768 774 774 769 762 756 749 743 742 744 744 747 747 742 741 745 749 760 765 752 741 739 734 735 737 718 697 695 694 692 694 692 689 689 686 684 683 682 681 680 677 675 674 674 674 674 674 674 675 678 681 686 689 692 695 699 702 705 708 712 716 719 723 727 731 736 739 743 747 751 754 758 761 763 766 768 771 773 776 778 780 782 784 787 789 792
770 775 775 769 759 750 745 743 741 743 746 749 747 743 742 744 744 749 752 746 742 740 733 738 738 715 696 696 696 693 693 691 689 687 683 683 682 681 679 676 674 672 669 669 670 670 671 671 671 674 679 683 685 688 692 695 698 702 705 710 713 715 720 725 730 734 737 741 744 748 752 754 757 760 763 765 768 770 773 776 777 780 782 785 788 790
769 771 773 772 765 751 747 750 750 749 751 749 742 738 741 742 743 746 746 744 744 738 731 737 735 713 696 696 696 693 691 690 689 686 685 684 683 681 678 673 671 669 667 666 666 666 668 669 670 672 675 678 682 684 687 690 694 698 702 705 709 712 718 723 727 732 734 738 742 745 748 751 754 757 759 762 765 768 771 773 775 778 780 783 786 789
766 769 770 771 767 756 750 753 753 750 749 745 737 733 736 741 748 750 747 744 741 734 730 730 725 710 698 695 694 693 692 690 687 685 685 684 682 680 676 671 669 668 665 663 663 663 664 665 668 670 671 673 677 680 683 687 690 694 698 702 706 711 716 720 725 729 732 735 738 741 744 747 749 752 756 759 762 766 768 771 773 776 778 781 784 787
765 767 765 763 759 750 743 742 744 745 743 737 732 729 729 736 745 746 740 735 730 727 727 724 718 713 704 697 696 695 692 691 687 684 683 682 680 678 673 668 666 666 664 661 660 659 660 662 664 666 668 669 672 675 679 683 686 691 695 699 704 708 713 718 722 725 728 731 734 737 740 742 745 749 753 756 760 763 766 768 771 773 776 779 782 785
763 763 760 762 758 749 745 742 742 745 745 738 732 729 727 730 738 740 733 724 718 722 726 720 715 716 708 699 698 694 690 689 685 682 679 676 675 673 669 665 663 664 662 659 657 656 657 659 660 662 665 667 669 672 676 680 684 688 692 697 701 706 710 714 718 722 725 727 731 734 736 739 743 747 750 754 757 760 763 766 768 771 774 777 780 782
757 756 753 758 755 748 747 744 741 745 746 741 736 732 728 728 730 730 722 715 713 717 720 714 712 713 706 697 693 689 687 687 683 679 676 672 670 669 665 662 660 660 659 656 654 652 653 655 656 658 661 664 667 670 674 678 683 686 691 694 698 702 706 710 714 718 721 724 727 730 733 736 741 745 748 751 754 758 760 763 766 769 771 774 777 780
752 750 747 753 752 744 741 739 739 745 743 737 734 731 727 724 723 721 715 711 711 710 708 706 708 708 702 694 689 685 685 686 682 679 675 670 668 665 662 659 657 656 654 651 649 648 647 648 650 654 658 661 664 667 670 674 678 682 686 690 694 699 702 707 711 714 717 720 723 727 730 734 738 742 746 748 751 755 758 761 764 767 769 772 774 777
750 747 743 750 751 742 737 735 736 742 741 735 731 727 724 721 719 718 715 711 711 708 704 704 707 703 694 690 690 688 686 685 681 677 673 667 664 662 659 656 655 653 651 649 646 645 644 644 646 650 654 658 661 663 666 670 674 678 683 687 691 695 699 703 707 710 713 717 721 725 728 731 735 739 743 746 749 752 755 759 762 764 767 769 772 775
752 749 742 746 748 736 731 734 733 734 736 732 726 724 724 721 717 716 713 707 705 702 700 702 704 698 690 690 693 690 686 684 680 674 669 663 661 660 657 654 651 649 647 647 646 645 645 644 645 646 649 653 657 660 663 666 671 676 680 683 687 691 696 700 703 707 710 715 719 722 725 728 732 736 740 743 747 749 753 756 759 762 764 766 769 772
752 751 744 744 743 731 728 735 734 731 732 728 722 724 727 723 717 714 709 704 702 699 698 697 695 692 692 695 695 690 686 685 680 672 666 662 659 657 655 653 650 644 642 643 643 643 644 644 645 645 647 650 653 657 660 664 667 671 675 679 684 689 694 697 700 704 708 712 716 718 721 726 730 734 737 741 745 748 750 753 756 759 761 763 766 769
748 751 749 745 740 728 726 732 733 731 730 724 719 725 729 725 720 717 711 708 707 704 700 696 692 693 696 696 695 693 688 684 679 670 664 661 658 655 653 652 649 643 639 639 638 639 641 642 644 646 648 651 655 658 662 665 668 671 675 680 684 687 691 694 698 702 706 709 713 715 719 723 727 731 735 739 742 745 748 750 753 756 758 760 763 766
745 748 749 746 739 729 726 729 729 727 725 721 721 725 726 724 722 720 713 709 709 707 704 702 699 697 697 695 694 693 688 682 677 669 661 657 656 655 652 650 646 641 637 636 636 637 639 640 643 646 649 652 656 660 663 666 669 672 676 679 682 685 689 693 696 700 703 707 710 713 717 721 724 728 732 736 740 743 745 748 750 753 755 757 759 762
745 744 744 742 735 729 730 731 729 725 722 723 724 722 720 721 720 717 711 705 704 707 708 707 704 700 697 694 690 688 685 681 674 664 655 653 653 653 651 648 645 641 637 636 636 637 638 639 641 644 648 651 655 659 663 666 669 673 676 679 682 684 688 692 695 698 701 704 707 710 714 718 721 725 729 733 737 740 743 745 747 749 752 755 758 760
742 742 740 735 730 730 733 731 726 724 721 722 722 720 720 722 719 717 715 706 702 706 708 708 706 701 696 693 688 684 683 678 667 654 649 651 652 650 647 645 642 640 637 636 637 637 638 638 639 642 646 650 654 659 663 667 671 673 676 679 682 684 687 690 693 695 698 701 704 707 711 715 719 723 727 731 734 737 740 743 745 746 750 753 757 760
740 739 737 734 732 732 731 726 724 723 719 714 715 716 716 716 715 718 718 708 702 705 706 707 706 700 694 693 690 686 684 676 661 648 646 650 650 646 642 638 638 639 638 637 637 637 638 638 639 642 646 649 653 657 662 667 671 674 678 680 682 685 687 690 692 694 696 698 701 704 708 711 715 719 724 728 731 734 737 740 742 744 747 751 755 758
738 738 737 736 734 731 730 729 727 723 716 713 713 712 710 710 714 718 715 706 701 703 703 704 704 700 695 693 690 689 689 680 660 647 648 653 651 647 644 639 637 639 640 638 637 636 637 639 640 643 646 650 654 657 660 665 669 673 677 680 683 685 687 689 690 692 694 697 699 702 705 709 712 716 720 724 727 731 733 736 740 742 745 748 752 756
736 735 735 734 733 733 735 733 726 719 715 714 714 712 708 708 711 713 708 701 700 701 700 700 701 699 695 693 691 691 691 683 668 656 655 656 652 648 646 644 641 642 642 640 637 635 637 639 642 645 647 649 651 655 658 662 667 671 675 679 683 686 687 688 691 694 697 698 699 701 703 706 710 713 716 720 724 727 730 733 737 740 743 746 749 752
742 740 738 736 734 734 736 733 725 719 716 714 713 712 709 708 709 709 704 699 699 700 698 697 699 696 693 694 694 692 688 682 675 668 662 658 653 647 645 646 645 644 644 642 639 637 638 639 642 645 648 650 651 653 655 659 663 668 672 676 679 680 682 687 693 696 698 698 699 700 701 704 707 711 714 717 721 724 727 730 734 737 740 742 744 748
751 746 741 738 736 736 738 736 727 719 716 716 714 711 709 710 710 706 702 701 700 699 697 697 697 694 692 692 692 689 684 679 675 671 665 660 655 649 646 648 648 646 644 643 641 639 639 640 642 646 649 651 653 654 655 657 660 664 669 672 672 672 676 682 686 689 693 695 697 698 700 702 705 708 713 717 719 722 725 729 732 735 737 739 741 744
755 749 743 741 740 739 737 734 728 722 719 717 716 714 713 714 711 705 702 702 700 699 698 697 696 694 692 690 687 684 681 677 674 671 666 660 656 652 650 651 651 648 646 645 643 641 640 640 641 644 647 650 652 654 656 658 661 664 668 669 668 671 677 681 683 688 693 696 699 701 702 704 706 708 712 715 718 722 724 727 730 733 735 737 739 743
754 752 749 747 744 742 738 733 728 724 719 717 717 717 714 710 706 704 704 703 700 698 697 696 694 693 691 690 688 686 683 679 674 671 668 663 658 655 654 654 653 649 646 645 646 645 643 641 642 644 646 649 650 652 654 656 660 663 665 665 667 672 677 680 683 688 690 692 695 699 701 703 706 710 712 713 716 721 723 725 728 731 734 736 738 741
752 751 751 748 745 742 739 733 726 722 719 716 716 714 710 705 703 703 704 702 699 697 697 695 692 690 689 689 689 687 684 678 672 670 670 667 663 660 658 657 655 651 648 646 645 644 644 643 643 644 646 648 648 650 651 653 657 660 661 663 667 672 675 677 680 683 685 686 689 691 694 697 701 704 707 709 712 716 719 722 725 728 732 734 737 739
750 750 750 748 743 738 732 727 724 724 720 715 712 709 707 705 703 702 702 701 699 697 696 694 692 689 689 689 686 683 680 675 670 669 670 669 666 664 661 658 655 652 650 649 647 645 644 645 645 645 646 648 648 650 651 653 656 658 660 663 667 670 672 675 677 679 682 684 686 687 690 692 694 696 699 703 706 709 713 717 721 725 729 732 734 737
751 751 751 748 746 741 731 724 725 725 720 714 712 709 707 705 704 703 702 700 698 696 695 693 691 690 689 688 685 681 677 672 670 671 671 670 668 666 664 662 659 656 654 653 651 650 649 649 649 649 650 651 651 652 653 655 657 659 661 664 666 668 670 672 674 676 679 681 683 684 686 689 691 694 697 700 703 706 709 713 717 722 727 731 733 736
757 754 754 753 751 745 734 725 725 724 719 715 713 711 709 708 705 703 702 699 697 695 694 691 689 688 687 685 684 681 676 672 670 670 671 670 669 667 665 665 663 661 659 657 656 656 656 655 655 655 655 656 656 656 657 658 659 661 662 664 666 667 669 670 672 673 675 677 679 681 684 686 689 691 695 698 701 703 706 709 714 719 722 725 727 731
763 759 760 760 754 743 734 729 727 724 718 714 713 711 710 709 706 703 701 699 697 695 693 690 688 687 686 684 683 682 679 674 672 670 670 670 669 667 665 665 664 663 662 660 659 659 659 658 658 658 658 658 658 659 659 660 661 662 663 664 665 666 668 669 670 671 672 674 676 679 682 685 687 688 691 696 700 703 705 708 712 716 719 722 724 727
768 766 766 764 756 747 740 737 734 731 725 720 716 713 711 709 708 704 701 699 698 697 695 692 689 688 687 685 682 681 679 676 674 673 671 670 670 668 667 666 665 664 662 661 660 660 660 659 659 658 659 659 659 660 660 661 661 662 663 664 665 666 667 668 669 670 671 673 675 678 681 684 686 687 689 692 698 703 706 708 711 714 718 722 725 728
773 774 772 768 762 754 747 742 739 737 732 725 719 716 713 710 709 707 704 702 700 698 697 696 694 691 689 685 682 680 678 678 677 676 673 671 671 669 668 667 666 665 663 662 661 660 660 659 659 659 659 660 660 661 661 662 662 663 664 665 665 666 667 668 669 670 671 673 675 677 679 682 684 686 688 691 696 701 704 708 711 715 718 722 725 727
Wind_Speed
2 1 2 4 2 1 2 3 4 1 2 2 3 2 2 3 4 4 5 6 5 3 5 7 11 11 8 8 8 8 7 9 11 10 10 9 9 10 11 12 13 13 13 15 17 19 21 22 24 25 26 29 31 32 34 36 37 37 35 34 35 35 35 35 35 33 33 33 32 30 30 29 27 26 25 25 24 23 22 20 19 18 18 17 15 14
3 1 5 3 2 2 4 4 2 1 3 3 3 4 4 4 5 4 6 8 6 3 6 7 10 9 6 7 9 9 7 9 12 12 12 11 10 10 12 14 13 11 10 8 8 11 18 21 23 26 27 30 32 33 35 37 38 38 36 36 36 36 36 37 37 36 35 35 34 32 32 31 28 27 26 25 25 24 22 20 19 19 18 17 16 15
3 5 6 3 5 4 5 4 1 1 2 3 2 2 4 3 4 5 5 7 5 2 5 8 10 7 5 6 9 10 9 9 10 12 12 12 11 9 10 12 10 9 8 6 7 10 17 21 25 26 27 32 34 32 33 34 35 37 37 36 36 36 37 38 39 39 37 36 34 32 30 30 28 27 26 25 24 23 22 21 20 19 19 18 17 16
3 5 3 5 6 3 3 2 3 2 1 2 2 2 4 1 1 4 3 6 7 4 6 8 9 7 4 5 8 9 10 10 9 9 10 10 12 13 13 12 11 12 11 9 9 9 14 19 23 26 28 31 31 29 31 33 36 39 38 37 36 37 38 39 39 39 38 37 34 31 29 28 27 26 26 26 24 24 23 22 21 21 20 19 18 16
7 6 3 2 4 4 2 1 3 2 2 3 4 4 4 2 3 5 4 5 7 8 7 5 8 8 5 6 7 7 8 10 9 7 8 8 9 11 13 13 13 15 14 13 13 12 11 15 22 28 30 30 30 31 34 37 39 39 38 37 36 36 37 38 38 38 37 36 33 30 26 25 25 24 25 26 25 25 25 24 23 22 21 20 18 16
8 6 5 4 4 4 3 2 3 5 2 3 4 7 8 6 6 6 4 4 4 6 5 3 5 7 3 6 8 6 6 9 8 7 9 10 9 8 9 11 13 14 14 14 15 14 13 16 22 28 29 29 30 35 39 40 39 38 37 36 35 36 36 37 37 37 37 36 34 31 28 27 26 25 27 30 29 27 26 24 23 22 21 20 18 16
4 4 5 4 5 4 4 5 4 6 3 3 4 7 9 7 6 6 5 1 1 5 4 1 3 6 4 3 7 6 7 10 10 9 10 10 9 8 8 10 11 11 12 13 13 13 14 16 18 22 27 31 34 39 40 37 37 37 37 36 36 35 36 36 37 37 37 37 36 35 33 31 29 27 28 30 30 28 26 24 23 22 22 20 19 17
2 1 2 3 3 4 4 4 4 6 5 4 5 5 6 6 7 7 6 4 4 5 6 3 3 5 3 5 7 4 6 9 10 12 12 10 10 10 11 12 12 12 12 11 11 11 13 14 16 21 28 35 40 40 37 36 38 39 38 37 36 35 35 36 36 38 39 39 38 36 34 32 31 29 28 28 28 27 26 25 24 23 22 21 19 17
2 1 2 4 3 4 4 2 3 6 4 5 4 2 4 5 7 6 5 5 4 3 7 5 4 4 4 5 7 3 4 8 10 13 15 15 14 12 13 14 13 14 12 11 11 12 13 16 21 26 31 37 41 38 37 39 40 38 36 36 36 36 35 35 37 39 39 39 38 36 34 31 30 29 28 28 27 26 26 25 24 23 23 21 19 18
1 3 5 5 3 4 4 3 5 5 5 4 3 3 4 4 5 5 5 4 3 3 7 9 5 4 5 4 5 3 4 8 8 11 14 17 17 14 13 13 12 10 8 9 10 11 14 19 27 32 34 36 35 33 35 37 35 34 35 35 36 37 36 36 37 39 40 39 37 36 34 32 29 27 27 27 27 27 27 26 25 25 23 22 20 18
3 3 3 4 4 4 4 4 5 6 6 2 5 4 4 3 3 3 3 4 3 3 9 13 8 5 5 4 5 5 6 7 6 7 10 14 17 14 11 10 10 8 7 8 10 10 13 19 27 30 30 31 30 29 30 32 33 35 35 35 37 37 36 37 38 40 40 39 37 36 35 33 31 29 28 28 28 28 28 27 26 25 24 22 20 19
3 4 2 4 5 6 4 4 4 6 5 1 1 1 3 4 1 0 1 3 3 5 8 12 9 7 7 5 5 7 10 8 6 6 9 11 13 13 9 9 9 9 9 10 10 10 11 13 17 19 22 25 25 25 28 32 34 35 36 36 36 37 38 39 39 40 41 39 38 37 36 34 33 32 31 31 30 30 30 29 27 25 24 22 21 20
3 6 5 4 5 7 6 3 3 4 3 3 3 3 2 2 2 1 3 3 4 6 8 8 5 6 8 6 6 10 12 10 7 7 8 8 10 10 9 8 9 9 10 11 11 11 11 11 12 14 19 22 24 27 31 34 35 35 36 37 37 39 40 38 39 40 40 39 38 37 36 35 34 34 34 33 32 32 31 30 29 27 25 24 23 23
4 5 5 4 4 7 9 6 4 3 3 4 4 4 4 2 1 1 3 3 3 6 8 6 4 4 7 6 11 14 15 13 11 10 10 10 10 10 8 7 7 9 11 11 12 12 12 12 12 14 20 23 26 31 34 35 35 35 36 37 39 39 38 38 38 39 39 39 38 37 36 35 34 34 34 34 33 33 33 31 30 29 28 27 26 26
2 6 3 4 2 4 10 11 7 5 3 4 4 4 4 3 2 2 2 3 4 5 6 5 4 5 5 5 12 16 17 15 13 13 12 11 12 11 9 7 7 9 10 11 12 14 14 14 15 17 21 25 28 32 34 34 35 35 36 38 39 38 38 39 38 38 38 38 36 36 36 35 35 35 34 34 34 34 33 32 31 30 29 29 28 27
2 6 5 5 4 4 8 8 6 6 2 3 4 4 4 4 3 2 4 4 3 2 4 3 3 5 5 5 6 10 12 12 11 11 10 10 11 10 9 8 7 8 10 10 12 14 15 15 16 18 22 25 29 32 33 34 35 36 37 39 41 40 39 39 38 39 38 37 36 36 36 35 35 35 34 34 33 33 33 32 32 31 30 29 28 27
2 5 5 3 5 6 8 6 6 7 4 2 4 5 4 5 4 2 4 5 2 1 4 3 3 5 5 7 8 7 7 8 9 9 8 9 10 9 9 8 7 8 9 10 11 13 15 14 15 19 23 25 28 30 32 35 39 41 41 39 39 37 36 38 39 38 37 36 36 36 36 36 36 36 35 35 34 33 33 32 32 31 30 29 28 27
3 5 6 3 6 7 5 4 5 7 6 3 4 6 4 3 3 2 3 4 2 2 4 3 4 6 6 6 8 8 7 7 8 8 8 9 10 9 9 9 8 8 10 12 13 13 14 15 15 20 25 28 30 31 34 38 41 41 40 38 37 37 39 41 40 38 36 36 36 36 37 37 37 37 36 35 34 33 33 33 32 31 31 30 29 28
3 3 7 3 4 6 2 2 3 5 7 5 3 3 3 2 2 1 3 3 2 2 3 4 4 4 6 5 5 9 11 10 10 9 8 10 10 9 9 10 9 8 8 10 11 11 12 13 15 19 25 29 31 33 35 36 35 33 34 35 37 39 40 39 38 37 37 36 37 37 37 37 37 36 35 35 34 34 34 34 33 32 31 30 30 29
2 1 4 3 2 4 3 2 2 3 5 6 5 2 1 2 2 1 2 2 2 2 2 4 4 3 5 6 6 9 11 11 11 10 10 10 10 9 8 9 8 8 9 9 10 11 12 13 15 21 26 29 32 34 33 32 32 32 33 34 35 36 35 36 38 38 38 37 37 35 35 36 36 36 35 35 35 35 35 34 33 33 32 31 30 29
1 1 3 4 3 2 2 1 4 4 3 4 5 2 1 1 2 1 3 2 2 3 2 2 4 5 5 5 7 9 10 11 12 10 10 9 9 10 9 9 8 8 10 11 11 12 14 14 15 22 28 29 28 28 28 30 32 32 32 32 34 34 34 36 38 39 37 36 35 34 34 36 36 35 35 35 35 35 35 34 34 33 32 31 30 30
1 2 2 4 4 2 5 4 4 5 4 3 5 5 4 3 2 1 3 4 2 3 3 3 3 6 6 3 5 6 4 6 8 7 7 8 9 10 10 10 10 9 10 12 13 13 14 14 14 20 25 24 22 23 27 29 30 30 32 34 34 35 36 38 38 38 36 34 34 34 35 35 35 35 35 35 35 35 35 35 34 33 32 31 30 29
2 1 2 5 5 5 8 8 6 5 3 2 4 4 4 4 3 3 3 4 3 2 1 2 2 6 6 3 2 1 4 5 5 5 6 7 8 9 10 10 10 10 11 12 13 13 13 14 15 18 20 21 23 26 28 29 29 32 34 34 34 36 38 39 38 37 35 34 34 34 34 35 34 35 35 35 35 35 35 35 34 33 32 30 30 29
3 1 3 4 4 5 7 6 5 3 1 2 4 3 3 3 4 4 4 3 2 4 2 1 2 6 6 3 2 4 7 7 5 5 7 7 7 9 11 10 8 9 10 11 11 12 12 13 13 13 13 16 21 24 26 28 30 31 32 32 34 37 38 37 35 35 34 34 34 34 34 35 35 35 36 35 35 35 35 35 34 33 31 30 29 29
2 1 2 1 4 4 3 3 3 2 2 3 4 3 4 2 2 2 2 2 2 4 3 3 3 6 5 5 5 7 9 9 8 7 7 7 8 9 10 9 7 8 9 10 11 12 13 12 11 11 11 14 20 24 27 29 30 30 32 33 35 36 36 36 35 35 34 34 33 34 35 36 36 36 36 36 35 35 36 35 34 32 31 30 30 28
2 2 3 1 1 1 1 1 2 2 3 3 2 3 4 2 5 5 2 3 3 4 5 5 4 6 8 10 9 9 9 10 11 9 7 7 9 10 9 9 7 7 9 11 12 13 14 12 11 12 13 15 21 24 26 28 30 30 32 33 34 34 34 35 35 34 34 34 34 35 36 36 37 38 38 37 35 35 36 35 34 32 31 31 30 28
1 2 4 4 4 4 4 5 4 1 1 3 4 5 5 7 11 10 6 5 5 4 3 4 4 5 10 11 10 11 11 11 12 11 9 8 9 9 9 8 7 7 9 11 12 13 13 12 13 15 15 16 21 25 27 28 30 30 31 32 33 34 34 34 34 34 34 34 35 35 36 37 37 38 38 37 36 36 36 35 34 33 32 31 30 29
1 2 6 7 8 9 7 8 6 1 1 5 5 8 11 12 13 12 10 7 5 4 4 5 4 3 9 11 11 12 12 12 12 11 11 10 8 8 8 8 8 8 9 11 12 13 13 13 14 15 14 15 20 24 26 27 29 30 30 31 32 33 34 35 34 34 34 34 34 35 36 36 36 37 37 37 36 36 36 35 34 33 33 32 31 30
1 2 4 6 8 11 9 10 8 3 4 6 6 9 13 15 14 14 13 9 7 6 5 6 5 5 8 10 13 13 12 12 13 12 11 10 8 8 8 9 9 9 10 11 13 13 13 14 14 15 14 15 17 21 24 25 26 28 29 30 32 33 35 35 34 34 34 34 34 35 35 35 35 35 36 36 36 36 36 35 34 34 34 33 32 31
0 3 4 6 6 9 9 8 6 4 4 5 7 9 11 13 13 13 11 8 7 7 6 6 7 8 8 9 12 13 11 11 11 10 10 10 8 7 8 9 10 10 10 11 12 13 14 16 16 15 15 14 15 20 23 24 27 29 30 31 32 34 35 35 34 33 33 33 33 33 34 34 34 34 35 36 37 36 35 34 34 34 34 33 32 31
1 3 2 5 4 6 7 7 6 5 3 3 7 9 8 8 8 8 7 5 5 6 6 5 5 7 7 5 8 11 10 10 10 11 11 9 7 6 8 9 10 9 9 10 11 11 12 14 14 14 15 15 16 21 24 25 28 29 29 30 32 34 35 35 34 33 33 33 32 33 33 34 34 35 36 36 36 36 35 35 34 35 34 34 33 31
3 2 2 1 2 3 5 6 6 3 2 3 7 8 6 5 5 5 5 5 6 6 5 4 3 5 5 5 8 11 10 10 11 11 10 8 6 6 7 9 10 9 8 8 8 9 9 11 13 15 16 16 18 23 25 26 27 27 29 31 33 33 34 34 34 33 32 32 32 33 34 34 35 35 36 36 35 35 36 35 35 35 35 35 34 33
3 2 2 1 3 4 3 3 2 3 5 3 5 5 5 5 3 3 4 5 4 3 4 4 4 4 4 7 9 12 12 12 12 12 10 8 7 7 7 9 11 10 7 7 7 8 8 8 10 12 13 15 19 24 27 28 29 29 31 32 32 32 33 33 33 32 31 32 32 33 34 35 35 35 35 35 35 35 35 36 35 35 35 36 35 35
2 2 2 2 2 4 4 4 3 4 1 4 4 3 4 4 3 4 6 8 7 4 3 4 3 3 6 7 7 10 13 13 14 14 12 8 7 8 8 8 10 10 7 6 6 7 7 7 7 7 10 13 17 21 24 26 27 27 28 29 30 32 33 32 31 31 31 31 32 33 34 34 35 35 34 35 34 34 35 35 35 36 36 36 35 35
3 3 2 1 2 3 3 4 3 1 2 3 3 4 6 5 5 6 9 10 7 4 5 5 4 5 7 8 8 9 11 14 16 16 14 9 7 7 8 9 9 9 8 5 5 6 7 7 7 7 10 14 18 20 22 24 25 24 26 28 29 30 31 30 29 30 30 30 31 32 33 34 34 34 34 34 34 35 35 35 36 36 35 36 36 37
3 2 2 1 2 2 3 2 0 3 3 3 5 5 4 3 4 5 7 6 1 2 5 6 6 6 7 9 10 9 11 14 14 12 10 8 7 5 6 8 8 9 8 6 4 5 6 8 10 11 12 16 19 20 20 22 23 23 24 27 28 28 28 28 27 27 28 29 30 32 33 34 34 33 33 34 34 34 34 35 36 36 36 35 35 35
6 3 1 2 1 0 1 3 2 2 4 3 2 3 2 2 3 3 4 4 1 2 4 6 6 7 9 10 12 13 13 12 9 6 6 6 6 5 5 7 7 8 9 5 2 4 7 11 14 16 18 19 20 19 18 18 20 20 21 23 24 24 25 25 25 27 29 30 31 33 34 34 34 33 33 33 34 34 33 34 36 37 37 34 32 33
6 4 1 1 2 1 1 3 3 3 3 4 3 4 4 5 5 4 3 4 2 1 2 3 6 8 9 10 12 14 13 9 6 6 5 6 11 10 10 11 9 7 7 4 4 6 9 14 17 19 21 21 21 21 22 21 20 19 18 19 21 21 22 22 24 26 28 30 32 34 34 35 35 35 34 34 35 34 34 35 36 36 36 35 33 33
1 1 1 1 2 1 2 2 2 2 4 4 3 5 6 4 5 4 2 3 3 2 2 3 5 8 9 10 12 12 9 5 5 6 5 10 15 13 12 13 12 9 6 5 6 8 9 13 16 19 21 21 21 23 26 25 24 22 19 18 20 20 20 22 24 26 27 28 31 33 34 35 35 36 36 36 35 34 36 37 36 34 35 35 33 33
4 3 2 1 3 2 0 1 3 3 3 3 3 7 9 5 1 3 2 3 3 5 4 2 5 7 8 10 11 9 6 4 5 8 11 14 15 12 8 10 11 9 6 5 8 13 15 15 15 16 18 21 24 27 30 29 26 22 19 19 18 18 20 22 22 21 23 26 29 32 34 35 36 36 37 37 36 36 37 37 33 31 32 33 33 34
3 3 2 1 3 2 1 2 3 3 3 3 4 7 10 6 2 3 3 4 5 8 6 3 4 5 6 8 8 6 6 8 9 13 15 14 14 12 10 9 10 10 7 4 8 14 16 17 17 15 15 19 25 29 31 31 26 22 21 20 20 23 26 22 19 21 24 27 29 32 33 35 37 37 37 37 37 37 37 35 33 33 35 35 34 35
3 3 2 1 3 2 1 2 3 3 2 2 5 7 6 3 1 2 3 4 6 8 7 5 5 5 5 7 8 7 9 12 13 12 13 12 10 10 11 11 11 12 10 4 5 12 14 13 15 15 14 16 22 26 28 28 24 22 22 22 25 31 31 29 30 33 32 30 30 32 33 35 37 38 36 35 35 36 35 33 32 35 37 36 35 35
2 3 3 2 2 2 1 1 2 2 2 3 6 7 3 1 3 5 5 7 8 7 6 5 6 6 5 8 10 11 13 14 13 10 10 10 7 8 10 10 9 10 10 8 5 4 10 11 11 14 16 18 21 24 25 23 20 19 20 24 29 29 27 28 29 26 21 20 21 23 28 30 32 33 33 34 34 33 31 31 31 34 36 36 34 33
1 1 3 2 1 2 2 2 2 4 6 7 6 4 3 5 6 6 6 7 6 5 4 4 6 6 5 7 11 12 12 12 9 7 8 9 8 8 9 9 9 9 8 10 12 7 4 9 11 13 17 21 24 27 27 26 22 19 22 27 26 20 19 21 21 20 20 21 21 23 27 29 29 30 32 33 33 31 30 31 32 34 35 35 32 31
1 1 3 3 2 1 3 5 6 7 9 9 5 5 8 9 7 5 5 6 5 3 2 4 7 8 7 7 9 9 9 9 6 5 5 6 7 7 7 7 6 7 8 9 13 13 6 3 9 12 13 16 22 25 27 27 24 22 23 24 18 16 19 21 23 25 27 27 28 30 32 32 32 35 36 34 34 33 33 33 33 34 34 33 31 30
2 2 3 3 4 3 5 7 7 7 10 10 7 6 7 7 5 5 5 5 4 4 3 4 6 8 8 8 8 7 7 7 7 6 5 5 5 5 7 7 5 6 8 9 12 16 13 5 5 8 8 10 16 20 22 24 24 23 22 19 16 19 23 24 25 28 28 27 28 31 32 32 34 36 37 35 35 35 36 36 35 33 32 31 30 30
4 5 5 4 5 5 5 6 6 9 12 11 8 8 8 7 6 5 5 5 5 5 5 5 6 6 6 6 7 8 9 8 7 6 5 4 3 3 5 6 6 7 8 8 11 14 11 6 3 3 5 6 11 15 18 20 21 20 20 19 19 22 25 26 27 27 27 27 28 29 30 32 33 33 32 31 31 32 36 37 35 33 32 31 29 27
6 7 7 7 7 5 7 9 10 11 10 8 7 8 8 8 8 7 5 5 6 6 6 6 5 5 5 6 7 8 9 8 7 6 5 4 3 2 3 4 4 6 7 8 10 8 5 4 4 3 3 3 6 10 12 14 16 17 18 20 21 23 25 26 28 28 28 29 29 29 29 30 31 32 31 29 29 31 33 34 32 33 35 35 34 32
7 7 8 8 8 5 6 8 13 11 8 6 10 11 9 8 9 9 7 7 7 7 7 7 6 5 7 8 7 6 6 7 7 6 5 4 4 4 5 4 4 5 7 8 8 6 4 4 5 5 4 4 6 9 11 12 14 16 18 20 21 23 25 27 28 28 28 28 28 27 27 29 31 33 32 30 29 30 31 32 32 32 32 32 34 37
7 7 8 7 5 5 7 11 13 10 7 7 11 13 11 9 9 10 9 9 9 9 9 9 9 8 8 8 7 6 5 6 7 7 5 4 4 4 4 4 4 5 8 11 11 10 9 6 5 6 5 5 7 8 10 11 12 14 17 19 21 22 24 25 24 23 23 24 24 25 27 28 30 31 30 30 29 27 25 26 28 29 28 29 32 36
6 6 8 6 4 7 11 14 12 8 7 8 10 11 11 9 9 10 9 8 8 8 6 6 7 8 8 7 7 6 6 6 6 6 5 5 5 5 6 6 6 6 9 13 13 11 12 12 9 6 4 2 4 7 9 9 10 12 14 16 20 22 23 24 23 21 21 22 24 27 29 29 29 29 29 28 28 27 26 23 21 21 24 27 30 32
Wind_Direction
84 102 245 225 241 195 200 232 210 146 26 334 314 271 281 291 273 278 281 302 4 339 253 240 257 261 245 239 242 241 222 209 217 213 209 199 191 198 196 194 193 196 211 212 206 204 198 194 193 192 192 192 193 196 199 203 206 207 205 202 202 204 204 203 203 202 202 201 198 198 200 202 204 204 208 214 217 220 222 222 223 223 223 225 227 229
50 266 248 206 108 158 211 238 232 346 324 302 285 282 286 270 268 277 276 293 327 322 274 271 275 278 267 249 244 240 225 217 216 209 211 209 203 203 201 201 194 195 213 198 168 175 184 186 187 189 190 190 193 195 199 202 204 206 206 204 203 202 202 203 203 203 204 203 200 199 200 202 206 208 210 214 219 224 224 224 224 223 223 226 226 228
357 273 258 181 162 182 212 229 169 152 263 274 281 292 279 280 294 278 265 286 299 281 275 285 285 277 264 257 252 241 229 227 219 208 207 201 201 207 210 212 200 198 211 181 156 168 177 179 182 186 189 193 197 196 197 202 204 206 207 206 204 202 201 202 203 203 205 205 204 203 202 203 207 211 212 215 222 226 225 224 223 222 224 226 226 228
278 258 229 170 172 178 254 250 120 136 220 237 232 262 266 295 0 270 285 314 310 291 268 284 292 274 243 263 268 248 235 239 231 217 216 204 198 202 205 210 204 203 205 190 187 182 172 174 177 183 191 195 196 195 197 200 203 206 206 205 204 202 202 202 203 204 205 206 206 207 207 207 211 214 214 216 222 225 224 221 220 221 223 225 226 228
245 235 198 200 177 162 234 293 114 167 255 242 209 210 241 224 207 240 295 330 319 301 271 269 293 277 219 223 259 263 248 247 242 227 231 229 217 214 207 203 202 203 201 193 195 188 172 174 180 186 192 193 193 195 199 202 204 205 206 205 203 202 202 202 203 203 203 203 203 203 203 204 207 209 209 210 213 217 217 217 218 220 222 223 225 230
261 235 198 248 239 171 196 249 174 178 227 279 229 214 220 216 217 241 294 345 339 298 268 196 258 274 237 210 229 246 252 245 241 228 227 230 225 224 220 211 208 207 202 197 196 188 179 181 184 187 190 190 194 199 203 205 205 205 205 205 203 202 202 202 202 201 201 200 199 196 192 191 193 195 199 203 205 208 211 215 217 219 221 222 224 229
268 223 175 200 223 194 197 235 215 168 172 266 238 212 214 209 214 234 253 269 210 257 269 146 239 278 324 282 236 233 248 240 231 225 225 229 224 217 221 221 221 220 211 205 200 187 183 186 184 185 187 190 199 205 204 203 205 205 205 204 203 203 202 201 201 201 200 198 198 197 194 193 192 192 197 202 205 208 211 215 216 217 219 221 224 227
223 236 98 139 178 199 206 238 219 159 153 246 236 195 196 199 207 221 217 205 214 257 290 301 258 275 301 280 262 248 263 256 236 227 226 225 221 216 220 220 221 225 218 209 200 181 182 187 185 188 190 195 203 206 200 200 205 205 204 203 203 203 202 201 201 201 200 199 198 198 197 197 197 197 198 201 203 207 211 213 214 216 218 221 223 226
178 154 180 158 160 206 212 220 185 153 170 244 252 211 209 207 211 213 201 214 223 245 279 264 216 252 262 257 267 252 245 259 242 228 226 223 219 213 218 220 218 223 220 211 201 185 184 186 188 194 197 201 205 203 197 199 203 203 202 202 202 202 202 202 202 202 201 201 200 198 196 197 198 199 200 201 202 204 208 211 212 214 216 219 222 224
211 214 188 164 177 213 208 195 169 165 213 250 348 332 274 238 224 216 192 214 222 195 252 252 197 220 267 251 251 235 221 240 238 232 229 226 224 214 214 221 220 222 222 217 209 196 192 191 191 196 200 204 206 202 198 199 200 200 200 200 201 202 202 202 203 202 202 202 201 199 198 198 196 196 197 198 199 201 204 207 209 211 214 217 220 222
245 242 184 178 212 191 177 201 182 187 224 304 10 341 323 309 227 219 192 189 218 220 245 249 217 201 256 245 219 224 226 219 217 233 235 232 232 222 210 217 218 211 207 210 213 209 204 201 198 197 199 203 202 199 196 196 198 198 198 199 200 202 202 203 203 203 203 202 202 201 201 199 196 193 192 192 194 197 200 203 206 209 212 216 219 220
252 237 223 227 213 174 169 222 213 211 229 282 7 26 3 329 322 101 229 173 206 242 242 246 228 204 235 239 217 236 241 229 215 228 240 242 243 234 213 204 209 206 201 200 206 211 208 205 203 199 200 200 196 193 193 196 198 197 196 197 198 201 203 203 203 203 203 202 202 203 202 201 197 194 193 192 193 195 197 201 204 207 210 213 214 215
265 230 229 226 206 180 177 221 228 224 221 159 155 127 94 312 10 46 242 189 207 244 245 243 222 216 241 234 220 244 251 246 235 231 242 252 255 252 231 206 200 197 196 197 200 206 206 203 200 196 197 195 190 192 195 197 197 196 196 197 197 201 202 202 202 202 202 202 202 202 202 201 198 197 196 195 196 197 198 201 204 205 207 208 209 210
301 273 237 207 220 189 180 202 213 200 195 167 160 146 147 164 116 222 243 216 219 250 256 246 219 242 268 232 208 229 247 250 250 246 246 252 257 261 252 223 205 198 195 196 197 200 204 204 201 197 196 193 192 195 196 197 197 195 195 196 199 201 201 200 202 202 202 202 202 202 202 201 199 198 198 197 199 200 201 203 207 209 210 211 211 211
271 295 244 186 227 196 193 207 192 159 175 181 161 158 173 178 186 210 210 206 223 254 257 239 210 221 246 223 198 210 230 239 246 250 248 253 257 259 259 235 210 207 202 197 197 199 202 203 201 200 198 195 196 197 196 196 196 196 196 197 199 200 199 199 200 201 202 202 202 202 202 202 200 200 199 199 202 203 203 206 209 211 213 215 215 214
215 273 252 220 241 215 212 214 168 144 185 199 158 157 193 201 211 245 231 217 211 255 256 214 203 217 230 262 228 213 226 228 235 248 249 255 259 258 259 242 211 207 209 205 201 199 202 204 202 201 200 199 200 198 197 195 195 197 198 198 199 199 198 197 199 201 202 202 202 203 202 201 201 201 200 199 203 205 206 209 211 213 215 217 217 215
191 269 275 276 269 227 218 213 161 163 189 187 171 187 206 190 179 214 251 251 213 248 271 228 221 247 253 274 264 235 236 239 238 244 239 244 254 257 260 252 222 204 204 207 206 201 201 202 203 204 203 203 202 199 197 197 197 198 199 198 198 196 195 197 199 201 201 202 202 202 202 201 200 201 201 200 202 205 207 211 213 214 215 216 216 215
194 269 283 273 269 256 225 202 191 192 180 134 170 194 194 175 172 180 240 260 237 244 277 246 218 230 230 254 256 232 237 255 250 244 241 243 249 253 257 257 239 213 205 206 206 205 203 201 201 203 205 206 204 200 200 201 200 200 200 197 194 193 195 197 198 198 200 202 201 202 202 201 201 202 201 201 204 205 206 209 210 212 214 215 217 216
177 264 284 258 258 293 323 150 234 240 207 200 220 188 150 159 189 222 220 221 226 237 268 271 255 230 221 237 233 218 228 244 248 248 253 252 251 251 253 257 248 226 217 212 207 208 208 206 204 203 206 207 204 202 203 204 202 200 199 196 194 196 197 196 195 196 200 202 202 203 202 200 201 202 201 202 204 205 206 208 210 211 214 216 217 217
146 214 289 297 275 308 349 116 199 257 224 225 263 323 71 153 146 190 229 199 202 220 240 275 288 268 234 222 201 204 216 228 238 244 249 250 253 253 247 248 242 223 220 218 211 212 210 210 209 205 207 208 204 202 201 199 198 199 198 195 195 197 196 194 194 196 199 201 202 202 200 199 201 200 200 201 204 204 206 209 211 212 214 216 217 218
112 165 256 297 312 314 304 206 183 199 193 201 227 232 147 139 105 106 265 248 191 186 187 234 271 272 251 216 206 212 210 213 221 231 245 255 260 262 257 249 235 218 217 215 211 213 212 212 211 209 210 210 205 200 196 194 196 197 196 194 194 195 194 195 196 197 198 199 200 200 198 198 200 199 199 201 203 205 207 210 212 213 214 216 217 219
189 192 212 284 304 271 246 233 185 186 189 189 205 196 181 180 138 138 266 274 237 185 180 189 241 267 259 216 205 219 230 234 223 215 240 260 263 265 264 256 242 222 214 214 211 211 211 210 211 211 210 204 195 192 192 193 193 193 194 195 194 193 194 196 196 196 197 196 198 199 197 197 198 198 198 200 202 204 207 210 212 214 214 215 217 219
145 170 233 265 259 247 253 250 231 223 232 263 244 206 160 151 144 156 222 259 273 272 222 165 248 267 262 237 197 277 323 294 247 213 241 263 268 271 271 263 250 233 220 215 213 213 211 209 209 208 204 194 189 191 191 191 191 193 195 194 192 193 195 196 196 195 194 194 196 196 195 195 196 195 196 199 201 203 206 210 212 213 214 215 216 217
123 164 235 276 287 272 267 264 266 271 214 243 256 219 149 162 178 184 208 212 240 271 278 58 280 266 269 289 335 327 313 301 280 257 261 270 275 279 278 271 254 240 231 220 215 217 217 214 209 200 195 192 192 190 189 191 193 194 194 193 193 195 195 195 194 193 193 193 194 193 192 193 194 193 195 198 201 202 206 210 211 212 213 214 215 214
162 180 172 308 332 323 332 2 343 328 174 207 240 194 161 201 258 278 250 185 205 240 196 147 235 254 276 308 325 323 316 311 296 268 250 255 267 274 278 279 265 245 238 226 217 217 218 217 208 193 189 192 193 191 190 192 194 193 193 193 193 194 193 192 192 192 192 191 190 190 191 191 192 192 195 198 200 201 205 208 209 210 211 212 212 211
187 175 136 143 170 165 139 193 233 219 194 218 239 187 155 189 239 255 239 180 211 232 179 168 229 277 308 315 320 321 313 307 300 286 263 250 257 263 268 276 272 252 240 230 220 217 215 209 200 196 196 193 193 192 191 191 192 192 192 193 193 192 190 190 191 191 190 189 188 189 190 190 191 192 195 198 199 201 203 206 207 207 207 209 209 209
156 200 196 204 210 214 206 212 219 163 200 232 208 195 202 212 216 220 218 199 199 205 204 215 238 292 305 304 309 309 301 298 296 290 279 260 251 256 263 274 272 251 238 230 222 219 212 200 197 200 199 195 193 192 190 190 191 190 190 191 191 190 187 188 190 189 189 189 188 189 190 190 191 192 194 197 198 200 202 203 205 205 205 206 207 207
142 224 218 217 235 249 249 251 259 277 242 243 208 192 212 227 221 214 223 222 181 176 252 249 199 240 285 288 290 290 289 291 289 281 277 272 266 270 280 288 278 256 239 228 221 217 206 198 200 200 198 197 192 190 189 190 190 188 188 188 187 187 186 187 188 188 188 188 188 190 190 190 191 191 193 195 196 198 200 201 201 202 203 204 205 208
174 241 214 200 239 257 257 260 261 239 237 247 229 209 216 227 224 212 219 216 168 169 232 238 216 240 273 283 283 282 285 288 285 279 276 277 280 285 295 300 288 264 243 228 218 210 201 198 200 198 197 195 189 186 186 186 186 186 186 186 185 185 186 187 187 187 187 188 189 190 189 188 189 191 192 193 194 195 197 198 198 199 201 202 205 208
221 257 212 186 241 269 267 268 261 226 240 254 248 238 225 223 221 216 222 210 178 189 215 225 251 267 263 267 280 290 296 294 287 282 278 275 275 282 297 303 289 266 246 232 221 208 199 198 197 194 193 190 186 185 183 182 183 184 184 184 184 185 186 186 186 186 186 188 190 189 187 186 188 189 190 191 192 193 194 195 196 197 199 202 205 207
205 260 226 172 225 268 258 263 256 217 216 270 277 272 251 230 223 228 237 207 185 222 225 212 254 274 263 270 293 298 298 298 296 290 283 273 262 277 302 302 286 267 248 239 232 222 210 200 193 189 189 190 188 186 184 183 183 183 182 182 183 184 185 185 186 187 187 189 188 186 184 185 186 188 189 190 191 192 193 194 195 197 199 201 203 205
203 265 325 148 250 262 228 246 260 265 2 312 291 302 295 252 224 228 239 216 205 218 212 207 251 268 278 315 317 304 304 307 299 288 283 279 270 278 295 294 286 274 249 234 237 240 229 208 193 187 187 188 187 186 185 182 179 180 182 183 183 184 183 184 186 187 188 188 186 184 183 184 185 187 188 190 190 191 192 193 194 195 196 198 200 202
198 257 311 290 283 283 277 271 260 48 28 310 273 298 295 273 271 282 275 265 252 211 182 210 236 247 291 320 317 311 315 315 302 289 287 292 293 289 285 283 287 283 258 229 220 221 221 210 200 194 190 187 186 186 184 180 178 181 183 182 181 180 181 185 187 186 187 186 184 183 183 184 185 186 188 189 190 190 190 191 192 193 194 196 198 200
203 205 256 277 265 282 329 4 53 77 74 243 242 242 242 252 287 299 286 282 285 282 234 240 261 298 313 314 309 307 307 303 295 288 282 276 276 288 293 286 283 284 275 247 217 201 196 192 185 181 181 182 183 183 181 181 182 183 182 180 179 180 183 185 186 186 186 185 184 184 184 184 185 186 187 188 189 189 190 190 192 194 196 196 197 198
244 213 237 266 239 275 351 37 48 13 228 234 258 240 228 236 249 263 274 270 265 292 309 306 314 319 314 308 303 299 295 293 289 282 276 263 248 269 290 288 284 289 288 264 222 191 175 166 157 154 164 171 174 177 179 181 182 179 178 179 179 181 184 185 184 186 185 184 184 184 184 184 185 185 186 188 188 189 190 191 192 194 196 197 197 199
232 231 239 233 234 300 354 31 336 279 272 290 301 275 258 277 282 291 299 285 200 47 335 318 317 322 322 315 313 312 303 298 291 273 258 252 243 241 262 283 297 300 289 267 224 195 170 158 155 152 154 161 166 171 175 179 178 175 175 179 181 183 184 184 184 185 184 183 183 183 184 185 184 184 185 186 187 189 191 191 192 194 197 198 198 198
203 204 250 283 278 336 318 282 286 318 306 298 287 274 252 228 264 297 304 280 184 69 328 313 320 332 336 327 324 326 321 313 303 278 251 257 270 267 270 293 320 313 292 277 189 164 155 148 147 147 147 152 157 162 166 169 170 170 172 177 180 181 182 183 186 185 184 184 184 184 185 184 182 183 184 185 187 189 190 192 194 195 196 196 195 195
200 216 253 308 305 51 33 308 329 354 300 258 232 257 239 205 220 244 261 262 247 199 290 315 326 332 341 338 331 332 331 321 296 278 282 313 319 322 323 325 337 330 293 258 138 133 145 144 144 148 150 150 152 157 159 160 162 163 165 171 177 181 183 186 189 189 187 187 186 185 185 184 183 184 184 186 189 189 189 194 197 196 195 195 195 195
133 250 30 7 297 345 40 324 306 269 260 261 271 291 289 249 218 212 236 264 268 280 306 349 340 334 342 340 334 332 328 309 270 267 304 332 323 320 328 329 331 332 294 231 158 136 142 141 140 147 149 146 149 156 160 162 164 163 166 175 180 182 187 192 195 193 190 189 188 187 185 185 185 185 186 189 191 189 192 197 198 195 193 194 195 195
17 0 11 346 297 299 163 269 269 242 255 284 306 317 321 320 158 144 205 259 301 327 330 354 345 339 342 337 330 325 306 269 270 292 313 324 314 308 324 328 320 321 303 236 165 141 139 139 141 148 153 154 156 159 162 165 167 167 171 176 178 188 198 200 197 195 194 192 189 187 186 185 186 188 189 191 190 191 196 198 195 191 190 192 194 196
336 335 347 319 290 278 222 256 272 265 271 290 312 322 326 335 67 131 218 257 311 323 316 323 328 325 333 328 315 304 282 268 279 296 304 309 308 310 328 332 315 312 306 245 169 143 140 148 155 158 160 161 160 160 165 167 167 170 174 174 182 196 200 195 194 202 204 199 192 188 186 185 188 190 192 192 191 194 198 197 192 190 191 192 192 195
317 318 318 297 297 295 217 245 281 287 264 269 305 315 324 336 307 249 255 289 315 313 310 318 305 287 307 317 300 292 293 288 288 296 297 300 310 320 330 337 329 325 327 306 177 151 141 147 155 154 152 157 161 164 167 168 168 171 174 182 198 202 195 191 199 207 206 199 193 189 186 186 189 191 192 193 194 195 194 192 190 190 191 191 191 192
288 308 310 290 295 313 298 286 313 311 265 286 317 326 349 0 275 280 299 310 307 305 306 305 289 284 311 320 306 303 302 295 295 303 301 303 323 332 330 336 332 326 336 341 320 171 147 143 149 154 156 160 167 171 171 171 172 172 179 199 211 206 194 195 202 202 196 191 189 186 185 186 189 190 191 194 196 194 188 185 186 189 191 192 189 186
260 313 315 300 308 339 337 326 298 275 279 295 313 308 278 267 268 276 298 298 290 298 308 294 288 294 310 307 298 297 294 287 294 313 310 314 335 339 335 339 333 327 340 344 335 329 161 153 152 159 166 170 175 178 179 180 180 180 194 210 213 199 188 191 191 187 187 188 187 185 187 189 190 192 194 195 194 192 188 185 185 188 192 193 186 181
334 328 292 285 284 271 270 267 263 276 293 301 297 270 269 279 283 283 286 287 290 307 317 299 299 306 310 296 280 275 280 287 308 339 331 325 335 335 330 327 323 334 347 343 342 348 354 139 146 153 167 176 179 182 185 187 186 190 203 211 205 189 185 185 183 186 189 188 186 187 188 189 190 193 195 194 191 190 188 186 184 186 190 190 185 182
303 315 288 280 293 284 261 259 269 301 312 310 306 299 291 296 310 313 303 302 310 313 308 296 294 298 306 302 291 291 305 316 337 358 350 331 330 338 339 331 327 347 350 342 346 354 356 13 120 138 156 180 188 189 192 193 194 198 204 202 193 190 190 186 184 186 187 186 187 188 188 187 188 190 192 192 191 190 189 188 186 184 184 185 185 185
317 329 324 314 323 327 303 293 321 332 320 316 323 329 331 339 340 327 314 309 309 311 304 292 285 289 303 315 317 319 324 333 350 0 351 336 331 352 357 343 337 345 348 348 354 357 1 13 48 119 144 171 191 194 195 198 200 203 201 193 190 191 190 187 186 184 184 186 188 189 188 186 185 186 188 188 187 186 188 189 186 181 181 184 183 183
327 330 337 332 326 310 280 295 327 329 309 312 338 338 339 346 334 322 323 320 313 314 310 296 289 305 331 341 333 324 327 341 355 356 349 341 333 2 24 2 341 342 350 360 7 9 20 42 49 84 113 132 169 181 187 193 198 199 194 190 191 190 187 186 185 183 184 185 186 186 187 185 182 182 183 183 181 181 184 187 184 181 185 188 185 184
319 320 335 326 310 292 276 307 335 332 305 322 348 341 338 342 330 322 329 336 331 332 334 329 329 343 347 340 329 320 327 345 351 344 344 350 346 355 10 5 352 354 359 6 17 33 63 90 103 111 112 127 156 170 179 185 191 195 194 194 194 191 188 187 187 186 186 184 181 180 180 181 181 181 180 180 180 181 185 188 187 187 189 190 191 194
337 338 342 330 318 326 321 323 333 331 311 320 334 330 328 335 332 324 331 346 347 343 343 341 339 344 344 329 318 324 343 357 353 341 343 2 357 347 353 357 357 7 13 17 25 35 43 57 94 118 131 152 169 178 186 190 193 196 199 200 197 193 189 186 185 186 186 181 176 174 175 178 181 181 179 178 176 174 178 183 187 190 192 193 197 202
348 337 326 310 297 304 307 313 322 321 300 300 312 318 322 329 331 323 325 340 340 332 334 331 320 325 332 327 330 351 4 1 350 340 346 6 7 357 358 5 10 15 19 24 28 28 29 33 42 52 67 125 179 192 200 204 202 200 202 201 198 196 193 188 186 188 187 181 176 175 176 179 181 179 177 176 173 169 167 169 176 185 193 198 201 203